Location: Invercargill
(46.4000°S, 168.3500°E)
Time: 13:06:26
(UTC+12:00)

Vanguard 3 - Visible Passes

Search period start: 20 August 2019 00:00
Search period end: 30 August 2019 00:00
Orbit: 508 x 3263 km, 33.3° (Epoch: 18 August)

Date Brightness Start Highest point End Pass type
(mag) Time Alt. Az. Time Alt. Az. Time Alt. Az.
20 Aug 10.7 04:41:44 10° N 04:51:40 25° NE 05:04:43 10° E visible
20 Aug 10.7 06:50:14 10° NW 07:04:27 47° NNE 07:22:44 10° E visible
21 Aug 10.8 03:32:15 10° NNE 03:37:43 14° NE 03:44:12 10° ENE visible
21 Aug 10.6 05:37:02 10° NNW 05:49:00 37° NNE 06:05:29 10° E visible
22 Aug 10.5 04:25:57 13° N 04:34:23 26° NE 04:47:20 10° E visible
22 Aug 10.6 06:33:40 10° NW 06:47:03 48° NNE 07:05:17 10° E visible
23 Aug 10.6 03:16:26 12° NNE 03:20:34 15° NE 03:27:24 10° ENE visible
23 Aug 10.4 05:21:01 12° NNW 05:31:44 38° NNE 05:47:56 10° E visible
24 Aug 10.2 04:11:25 19° N 04:17:14 27° NE 04:29:52 10° E visible
24 Aug 10.4 06:17:14 10° NW 06:29:46 48° NNE 06:47:43 10° E visible
25 Aug 10.5 03:01:46 15° NE 03:03:31 15° NE 03:10:25 10° ENE visible
25 Aug 10.1 05:06:20 18° NNW 05:14:35 39° NNE 05:30:19 10° E visible
26 Aug 10.0 03:56:38 24° N 04:00:13 28° NE 04:12:21 10° E visible
26 Aug 10.2 06:01:11 11° NW 06:12:36 48° NNE 06:30:04 10° ENE visible
27 Aug 10.5 02:46:53 16° NE 02:46:53 16° NE 02:53:21 10° ENE visible
27 Aug 9.8 04:51:27 24° NNW 04:57:34 40° NNE 05:12:39 10° E visible
28 Aug 9.8 03:41:40 27° NNE 03:43:19 28° NE 03:54:50 10° E visible
28 Aug 10.0 05:46:14 16° NW 05:55:33 47° N 06:12:21 10° ENE visible
29 Aug 10.5 02:31:51 15° ENE 02:31:51 15° ENE 02:36:15 10° ENE visible
29 Aug 9.5 04:36:25 30° NNW 04:40:42 40° NNE 04:54:57 10° E visible
29 Aug 10.2 06:42:12 10° WNW 06:53:58 49° N 07:11:35 10° ENE visible
